Location: Ripley
(48.3812°N, 115.4473°W)
Time: 12:27:55
(UTC+00:00)

RS-15 - Pass Details

Date: 02 July 2022
Orbit: 1881 x 2163 km, 64.8° (Epoch: 13 August)

Event Time Altitude Azimuth Distance (km) Brightness Sun altitude
Rises 09:52:19 0° 318° (NW) 5,695 10.7 -13.2°
Reaches altitude 10° 09:57:48 10° 299° (WNW) 4,667 10.0 -12.7°
Maximum altitude 10:03:59 16° 268° (W) 4,155 9.4 -12.2°
Drops below altitude 10° 10:10:05 10° 236° (SW) 4,568 9.4 -11.6°
Enters shadow 10:10:11 10° 235° (SW) 4,581 9.4 -11.6°
